Torna al catalogo

STARLINK-35973

AttivoComunicazioniVLEO
NORAD 66632·PAYLOAD·🇺🇸 United States

Lanciato Nov 23, 2025 da Vandenberg Space Force Base

Loading…

Prossimi Passaggi (prossime 24 ore)

TLE

AggiornatoSource: CelesTrak SupGP

Epoca: Sep 15, 2026, 03:56 UTC

1 66632C 25271R   26258.16437500  .00058413  00000+0  17254-2 0  2588
2 66632  53.1598 334.9250 0001198  86.1237 339.1186 15.34369040    15

Traccia STARLINK-35973 in tempo reale con AllMySat

Download on the App Store